Weather History for Springfield, VT

Change the Weather History Date:

Saturday, June 29, 2013

  Actual Average Record
Temperature  
Mean Temperature 73 °F 68 °F  
Max Temperature 83 °F 80 °F 91 °F (2012)
Min Temperature 63 °F 56 °F 51 °F (2007)
Cooling Degree Days 8 4  
Month to date cooling degree days 82 60  
Year to date cooling degree days 106 72  
Since 1 June cooling degree days 82 60  
Growing Degree Days 23 (Base 50)    
Moisture  
Dew Point 65 °F    
Average Humidity 75    
Maximum Humidity 100    
Minimum Humidity 49    
Precipitation  
Precipitation 0.01 in 0.10 in 1.68 in (2006)
Month to date precipitation 6.37 3.79  
Year to date precipitation 18.08 20.06  
Sea Level Pressure  
Sea Level Pressure 29.56 in    
Wind  
Wind Speed 4 mph (South)    
Max Wind Speed 15 mph    
Max Gust Speed 22 mph    
Visibility 7 miles    
Events Fog , Rain    
T = Trace of Precipitation, MM = Missing Value Source: NWS Daily Summary

Daily Weather History Graph

Daily Weather History Graph

Search for Another Location

Airport:

Trip Planner

Search our weather history database for the weather conditions in past years. The results will help you decide how hot, cold, wet, or windy it might be!

Date:

Astronomy

Jun. 29, 2013 Rise Set
Actual Time 5:12 AM EDT 8:34 PM EDT
Civil Twilight 4:37 AM EDT 9:09 PM EDT
Nautical Twilight 3:50 AM EDT 9:56 PM EDT
Astronomical Twilight 2:53 AM EDT 10:53 PM EDT
Moon No Moon Rise 12:34 PM EDT (6/29)
Length of Visible Light 16h 32m
Length of Day
15h 21m
Waning Gibbous, 56% of the Moon is Illuminated
Jun 29
Waning Gibbous
Jun 30
Last Quarter
Jul 8
New
Jul 15
First Quarter
Jul 22
Full

Hourly Weather History & Observations

Time (EDT) Temp. Heat Index Dew Point Humidity Pressure Visibility Wind Dir Wind Speed Gust Speed Precip Events Conditions
12:20 AM 66.2 °F - 64.4 °F 94% 29.53 in 10.0 mi Calm Calm - 0.00 in   Overcast
12:43 AM 66.2 °F - 66.2 °F 100% 29.51 in 10.0 mi Calm Calm - 0.00 in   Overcast
12:54 AM 66.9 °F - 66.0 °F 97% 29.50 in 10.0 mi NE 3.5 mph - 0.00 in Rain Light Rain
1:54 AM 66.9 °F - 66.0 °F 97% 29.51 in 10.0 mi Calm Calm - 0.01 in   Overcast
2:03 AM 66.2 °F - 66.2 °F 100% 29.51 in 10.0 mi Calm Calm - N/A   Overcast
2:54 AM 66.9 °F - 66.0 °F 97% 29.50 in 10.0 mi Calm Calm - N/A   Overcast
3:54 AM 66.0 °F - 66.0 °F 100% 29.50 in 10.0 mi Calm Calm - 0.00 in Rain Light Rain
4:47 AM 64.4 °F - 64.4 °F 100% 29.52 in 2.5 mi Calm Calm - 0.00 in   Mostly Cloudy
4:52 AM 64.4 °F - 64.4 °F 100% 29.52 in 1.8 mi Calm Calm - 0.00 in   Mostly Cloudy
4:54 AM 64.9 °F - 64.9 °F 100% 29.52 in 1.5 mi Calm Calm - 0.00 in   Mostly Cloudy
5:06 AM 66.2 °F - 64.4 °F 94% 29.52 in 3.0 mi Calm Calm - N/A   Mostly Cloudy
5:17 AM 64.4 °F - 64.4 °F 100% 29.53 in 1.8 mi Calm Calm - N/A   Overcast
5:24 AM 64.4 °F - 64.4 °F 100% 29.54 in 0.2 mi Calm Calm - N/A Fog Fog
5:33 AM 64.4 °F - 64.4 °F 100% 29.54 in 0.2 mi Calm Calm - N/A Fog Fog
5:46 AM 64.4 °F - 64.4 °F 100% 29.55 in 0.2 mi Calm Calm - N/A Fog Fog
5:54 AM 64.9 °F - 64.9 °F 100% 29.55 in 0.2 mi Calm Calm - N/A Fog Fog
6:03 AM 64.4 °F - 64.4 °F 100% 29.55 in 0.2 mi Calm Calm - N/A Fog Fog
6:14 AM 66.2 °F - 66.2 °F 100% 29.55 in 1.0 mi Calm Calm - N/A   Overcast
6:18 AM 66.2 °F - 66.2 °F 100% 29.55 in 3.0 mi Calm Calm - N/A   Overcast
6:54 AM 66.0 °F - 66.0 °F 100% 29.55 in 6.0 mi South 3.5 mph - N/A   Overcast
7:01 AM 66.2 °F - 66.2 °F 100% 29.55 in 0.8 mi Calm Calm - N/A   Overcast
7:14 AM 66.2 °F - 66.2 °F 100% 29.56 in 2.0 mi Calm Calm - N/A   Overcast
7:23 AM 66.2 °F - 66.2 °F 100% 29.56 in 9.0 mi Calm Calm - N/A   Overcast
7:54 AM 66.9 °F - 66.9 °F 100% 29.56 in 10.0 mi Calm Calm - N/A   Overcast
8:34 AM 69.8 °F - 68.0 °F 94% 29.57 in 10.0 mi Calm Calm - N/A   Scattered Clouds
8:54 AM 71.1 °F - 66.9 °F 87% 29.56 in 10.0 mi Calm Calm - N/A   Partly Cloudy
9:54 AM 72.0 °F - 66.0 °F 81% 29.56 in 10.0 mi South 3.5 mph - N/A   Partly Cloudy
10:16 AM 73.4 °F - 66.2 °F 78% 29.57 in 10.0 mi WNW 3.5 mph - N/A   Mostly Cloudy
10:54 AM 73.9 °F - 66.0 °F 76% 29.56 in 10.0 mi WSW 3.5 mph - N/A   Mostly Cloudy
11:37 AM 78.8 °F - 66.2 °F 65% 29.56 in 10.0 mi SSE 10.4 mph - N/A   Mostly Cloudy
11:54 AM 77.0 °F - 66.0 °F 69% 29.56 in 10.0 mi Variable 4.6 mph - N/A   Partly Cloudy
12:54 PM 80.1 °F 82.1 °F 66.0 °F 62% 29.54 in 10.0 mi SE 6.9 mph - N/A   Mostly Cloudy
1:54 PM 80.1 °F 81.9 °F 64.9 °F 60% 29.54 in 10.0 mi South 8.1 mph 18.4 mph N/A   Mostly Cloudy
2:54 PM 82.0 °F 83.1 °F 63.0 °F 52% 29.54 in 10.0 mi South 12.7 mph - N/A   Scattered Clouds
3:54 PM 82.0 °F 83.1 °F 63.0 °F 52% 29.54 in 10.0 mi South 9.2 mph - N/A   Mostly Cloudy
4:54 PM 81.0 °F 81.3 °F 59.0 °F 47% 29.56 in 10.0 mi SSW 6.9 mph - N/A   Mostly Cloudy
5:54 PM 79.0 °F - 59.0 °F 50% 29.58 in 10.0 mi SW 4.6 mph - N/A   Mostly Cloudy
6:54 PM 75.0 °F - 61.0 °F 62% 29.61 in 10.0 mi West 15.0 mph 19.6 mph N/A   Overcast
7:54 PM 72.0 °F - 62.1 °F 71% 29.63 in 10.0 mi Calm Calm - N/A   Mostly Cloudy
8:54 PM 68.0 °F - 63.0 °F 84% 29.65 in 10.0 mi East 3.5 mph - N/A   Overcast
9:54 PM 66.9 °F - 64.0 °F 90% 29.68 in 10.0 mi ESE 3.5 mph - N/A   Mostly Cloudy
10:54 PM 66.0 °F - 64.0 °F 93% 29.69 in 10.0 mi Calm Calm - N/A   Mostly Cloudy
11:54 PM 66.0 °F - 63.0 °F 90% 29.70 in 10.0 mi Calm Calm - N/A   Mostly Cloudy